Weather in Akbash

Russia / Sverdlovsk Oblast     56°22′59″N   59°01′44″E
temp.,
°C
wind,
m/s
gust,
m/s
humid.,
%
clouds,
%
prec.,
mm/h
press.,
hPa
HPBL,
m
31 july, sat
sat3123:00+15wsw259813 1.6 1005116
02:00+14wsw229917 0.0 100642
05:00+13sw1199100 0.0 100717
08:00+17sw139484 0.0 1008209
11:00+22sw246698 0.0 1007728
14:00+20sw4782100 1.0 1008492
17:00+17se1198100 3.1 100830
20:00+17sse2498100 1.0 1007124
1 august, sun
sun123:00+16s259895 1.3 1007122
02:00+16sw2109999 0.3 1007336
05:00+16sw3109953 1.3 1007358
08:00+18wsw4119569 0.0 1008549
11:00+24w59530 0.1 10081645
14:00+25w59411 0.1 10092319
17:00+22w410501 0.1 1009796
20:00+21nw496356 0.0 1010612
2 august, mon
mon223:00+17wsw1176100 0.0 101220
02:00+14wsw118727 0.0 101211
05:00+12wsw11936 0.0 101311
08:00+17wsw257093 0.0 1014287
11:00+23w4854100 0.0 1014988
14:00+26w584258 0.0 10132404
17:00+23wnw3755100 0.0 1013519
20:00+21w117494 0.0 101314
3 august, tue
tue323:00+18s1180100 0.0 101311
02:00+16s228497 0.0 101334
05:00+15wsw119185 0.3 101311
08:00+18sw13829 0.2 1014137
11:00+26w364955 0.2 1013714
14:00+29w35398 0.0 10121762
17:00+30wsw34345 0.0 10122139
20:00+24s11590 0.0 101211
4 august, wed
wed423:00+19ssw2367100 0.0 101238
02:00+18sse227367 0.0 101213
05:00+17sse227616 0.0 101213
08:00+22s246422 0.0 1012142
11:00+28wsw35425 0.0 1012689
14:00+32sw23325 0.0 10111053
17:00+32s23305 0.0 10101387
20:00+26wsw386246 0.0 1010209